Regional Weather Roundup
Issued by NWS

Home | Current Version | Previous Version | Text Only | Print | Product List | Glossary On
Versions: 1 2 3 4 5 6 7 8 9 10 11 12 13 14 15 16 17 18 19 20 21 22 23 24 25 26 27 28 29 30 31 32 33 34 35 36 37 38 39 40 41 42 43 44 45 46 47 48 49 50
000
ASUS44 KLUB 031510
RWRTX
WEST TEXAS WEATHER ROUNDUP
NATIONAL WEATHER SERVICE LUBBOCK TX
900 AM CST SAT DEC 03 2016

NOTE: "FAIR" INDICATES FEW OR NO CLOUDS BELOW 12,000 FEET WITH NO
SIGNIFICANT WEATHER AND/OR OBSTRUCTIONS TO VISIBILITY.

TXZ004-006>008-010-012-014-016-OKZ002-031600-
TEXAS PANHANDLE/OKLAHOMA PANHANDLE

CITY           SKY/WX    TMP DP  RH WIND       PRES   REMARKS
AMARILLO       FOG       34  34 100 N6        30.14S VSB 1/4 WCI  29
BORGER         CLOUDY    35  35 100 N6        30.16R FOG     WCI  30
CANADIAN       CLOUDY    39  38  99 E3        30.17S FOG
DALHART        CLOUDY    32  32 100 NE5       30.15R FOG     WCI  27
DUMAS          CLOUDY    31  31  98 NE3       30.15R VSB 1/4
GUYMON         FOG       33  33 100 N3        30.16S VSB 1
HEREFORD       FOG       35  35 100 NE9       30.13S VSB 1   WCI  27
PAMPA          FOG       38  37  97 E6        30.15R VSB 3/4 WCI  33
PERRYTON       CLOUDY    35  34  96 E3        30.15R VSB 1
$$

TXZ026-029-035-045-048-031600-
SOUTHERN PANHANDLE/SOUTH PLAINS/ROLLING PLAINS

CITY           SKY/WX    TMP DP  RH WIND       PRES   REMARKS
CHILDRESS      LGT RAIN  43  41  93 E7        30.17F
SEMINOLE       CLOUDY    40  40  99 NE10      30.08S WCI  34
LUBBOCK        LGT RAIN  40  38  93 E9        30.09R WCI  34
PLAINVIEW      CLOUDY    37  37 100 E10       30.10R WCI  30
SNYDER         LGT RAIN  41  40  97 NE13G21   30.08R
$$

TXZ052-054-060>062-072-078-127-140-154-169-031600-
PERMIAN BASIN/CONCHO VALLEY/BIG COUNTRY/EDWARDS PLATEAU

CITY           SKY/WX    TMP DP  RH WIND       PRES   REMARKS
ABILENE        LGT RAIN  44  44 100 NE10      30.07S
BIG SPRING     CLOUDY    42  41  96 NE15G23   30.08R
BROWNWOOD      PTSUNNY   46  45  93 E10G20    30.06S
JUNCTION       LGT RAIN  47  45  93 NE13      30.00R
MIDLAND        CLOUDY    43  41  93 NE16      30.04S FOG
ODESSA         CLOUDY    43  40  89 E16       30.05R FOG
SAN ANGELO     LGT RAIN  46  45  96 NE9       30.04S
SONORA         LGT RAIN  48  46  93 NE9       30.03F
SWEETWATER     CLOUDY    43  43 100 NE13G20   30.09S
WINK           CLOUDY    44  42  93 NE10      30.06R
$$

TXZ055-058-074-075-080-082-031600-
FAR WEST/SOUTHWEST MOUNTAINS/TRANS PECOS

CITY           SKY/WX    TMP DP  RH WIND       PRES   REMARKS
ALPINE         CLOUDY    39  38  99 E12       30.06S VSB 1/2 WCI  31
DRYDEN           N/A     50  45  83 N16G26    29.95R
EL PASO        CLOUDY    40  35  83 N18       29.97R WCI  31
FORT STOCKTON  CLOUDY    43  43 100 NW12      30.02S FOG
GUADALUPE PASS CLOUDY    34  34 100 NE44      29.95S WCI  18
MARFA          CLOUDY    39  38  96 NE17      29.98R WCI  30
PECOS          DRIZZLE   40  40  97 NW15      30.07R WCI  32
PRESIDIO       CLOUDY    55  48  78 N10       29.90S
$$

TXZ014-016-019-021>030-083-031600
TEXAS TECH WEST TEXAS MESONET/TEXAS PANHANDLE/NORTHERN SOUTH PLAINS

CITY           SKY/WX    TMP DP  RH WIND       PRES   REMARKS
ABERNATHY 5ENE   N/A     38  38  98 E9        30.13R WCI  32
AMARILLO 9NNE    N/A     33  33 100 N6        30.16R WCI  28
AMARILLO 7SSE    N/A     34  33  98 N7        30.16R WCI  27
AMHERST 1NE      N/A     38  38  98 E8        30.12S WCI  32
BOOTLEG 11WNW    N/A     30  29  96 N7        30.15R WCI  24
CANADIAN 6E      N/A     38  38  99 E7        30.16S WCI  33
CAPROCK CYN SP   N/A     39  39 100 E12       30.15F WCI  32
CHILDRESS 2NNE   N/A     41  40  97 NE9       30.17F
CLARENDON 2WSW   N/A     39  38  94 SE12      30.16S WCI  32
CLAUDE 12SW      N/A     38  37  99 SE8       30.14S WCI  32
DIMMITT 2NE      N/A     33  33  99 N9        30.13R WCI  25
FLOYDADA 2NNE    N/A     38  37  99 E10       30.11S WCI  31
FRIONA 2NE       N/A     32  32  99 N10       30.14S WCI  24
GOODLETT 3W      N/A     43  41  94 NE12      30.17S
HART 3N          N/A     35  35  99 N9        30.13R WCI  28
HEREFORD 2NW     N/A     33  33  99 N10       30.15S WCI  25
MCLEAN 1E        N/A     39  39  99 SE12      30.15R WCI  32
MEMPHIS 1NE    RAIN      41  41  99 E7        30.18S
MULESHOE 2SSW    N/A     34  34  99 NE8       30.13R WCI  27
OLTON 6S         N/A     38  37  96 E9        30.12R WCI  32
PALO DURO SP     N/A     35  34  96 N5        30.16R WCI  31
PAMPA 2E         N/A     36  36  99 E7G13     30.16R WCI  31
PLAINVIEW 1S     N/A     38  38  99 E10G17    30.11F WCI  31
SILVERTON 7ESE   N/A     38  37  99 E14       30.11F WCI  29
TULIA 2ENE       N/A     37  37  99 E9        30.14R WCI  30
TURKEY 2WSW      N/A     40  40  99 E10       30.15S WCI  33
UMBARGER 3NNE    N/A     33  32  99 N9        30.15S WCI  25
$$

TXZ033>036-039>041-045>048-031600
TEXAS TECH WEST TEXAS MESONET/SOUTH PLAINS

CITY           SKY/WX    TMP DP  RH WIND       PRES   REMARKS
AIKEN 3WSW       N/A     38  38 100 E13       30.13S WCI  30
ANDREWS 2NE      N/A     41  39  94 NE14      30.08R
ANTON 6SSW       N/A     39  38  98 E9        30.12R WCI  33
BROWNFIELD 2S    N/A     39  38  97 NE13      30.10R WCI  31
DENVR CTY 7WNW   N/A     38  38  99 NE9       30.10R WCI  32
GAIL 2ESE        N/A     41  39  93 NE12G17   30.09R
LAMESA 2SE       N/A     40  39  97 NE12      30.09R WCI  33
LEVELLAND 4S     N/A     39  37  92 NE10      30.11S WCI  32
LUBBOCK 3WNW     N/A     40  39  98 E9        30.12R WCI  34
MORTON 1ENE      N/A     38  37  97 NE8       30.12R WCI  32
ODONNELL 1N      N/A     39  39  98 NE16      30.09S WCI  31
PLAINS 3N        N/A     39  38  98 NE10G17   30.10R WCI  32
RALLS 1SE      LGT RAIN  39  37  93 E13       30.11S WCI  31
REESE CENTER   LGT RAIN  38  38  97 E12       30.11S WCI  31
SEAGRAVES 1SW    N/A     39  39  98 NE7       30.10R WCI  34
SEMINOLE 2NNE    N/A     40  39  97 NE12      30.09R WCI  32
SLATON 2NE     LGT RAIN  39  38  99 NE12      30.11R WCI  31
SNYDER 3E        N/A     40  40  99 NE15      30.08S WCI  32
SUNDOWN 8SW      N/A     39  38  97 NE10      30.09S WCI  32
TAHOKA 3NNE      N/A     39  38  97 E15       30.10S WCI  31
WOLFFORTH 6SSW   N/A     39  38  97 NE12      30.10S WCI  32
$$

TXZ031-032-036>038-042>044-031600-
TEXAS TECH WEST TEXAS MESONET/ROLLING PLAINS

CITY           SKY/WX    TMP DP  RH WIND       PRES   REMARKS
ASPERMONT 3NE    N/A     43  42  97 NE12      30.12R
FLUVANNA 3WNW    N/A     40  39  97 NE16      30.09R WCI  31
GRAHAM 5SSW    LGT RAIN  39  38  97 NE14      30.10R WCI  31
GUTHRIE 10WSW    N/A     41  40  96 N12G17    30.13S
HASKELL 1NW    LGT RAIN  43  43  98 NE18      30.12S
JAYTON 1SSE      N/A     41  40  96 NE12      30.12R
KNOX CITY 3NW  RAIN      44  41  89 NE15      30.14S
LK A HENRY 1NW   N/A     41  38  91 NE13      30.11R
NORTHFIELD 1S  LGT RAIN  41  41  99 E9        30.17S
ODELL 4ENE       N/A     44  43  97 NE9       30.20F
PADUCAH 10SW     N/A     41  41  99 NE10      30.16S
POST 1NE         N/A     40  39  95 NE10      30.12R WCI  34
RRING SPRGS 3N   N/A     39  39  99 NE12      30.14S WCI  32
SEYMOUR 3NW    LGT RAIN  44  42  92 N16G22    30.16F
SPUR 1W          N/A     40  39  96 NE12G17   30.13S WCI  33
WEINERT 2NNE     N/A     43  41  93 NE14      30.14R
WHITE RVR 6NE    N/A     40  38  95 NE15G21   30.11S WCI  31
$$

TXZ052-054-060>062-072-078-127-140-154-169-031600-
TEXAS TECH WEST TEXAS MESONET/PERMIAN BASIN/
CONCHO VALLEY/BIG COUNTRY/EDWARDS PLATEAU

CITY           SKY/WX    TMP DP  RH WIND       PRES   REMARKS
COYANOSA 2N      N/A     45  45 100 N7        30.06R
JUNCTION 1SSW    N/A     46  46  98 NE14      30.02R
MERTZON 3NNE     N/A     44  44  97 NE9       30.06R
SAN ANGELO 7NW   N/A     45  43  91 NE9       30.06R
STRLNG CT 4WSW   N/A     44  43  95 NE8       30.07R
ST LAWRNCE 5SW   N/A     44  42  95 NE13      30.05R
SWEETWATR 11SW   N/A     42  42  99 NE12      30.08R
WALL 1E          N/A     45  42  91 NE13G18   30.06F
$$

TXZ055-058-074-075-080-082-031600-
TEXAS TECH WEST TEXAS MESONET/FAR WEST/SOUTHWEST MOUNTAINS/TRANS PECOS

CITY           SKY/WX    TMP DP  RH WIND       PRES   REMARKS
PRSMN GAP BBNP   N/A     52  46  79 N20       29.94R
GUADLPE MTN NP   N/A     36  34  94 NE12      30.05R WCI  27
$$




USA.gov is the U.S. government's official web portal to all federal, state and local government web resources and services.